Alle Lego-Sets mit ein Set Nummer von 41000 zu 42000

Sortieren nach
Set TitelPreisDifferenzHinzugefügt
Jetboot Vergnügen (41000)5,49 €- 0,50 € (8%)2012-12-17
Stephanies großer Auftritt (41004)24,95 €+ 4,96 € (25%)2012-12-17
Stephanie's Soccer Practice (41011)14,95 €+ 4,96 € (50%)2012-12-17
LEGO® Friends Advent Calendar (41016)19,98 €- 3,01 € (13%)2013-09-25
Squirrel's Tree House (41017)3,95 €- 0,04 € (1%)2012-12-17
Cat's Playground (41018)3,95 €- 0,04 € (1%)2012-12-17
Emmas Einsatz am Strand (41028)10,95 €+ 0,96 € (10%)2013-12-27
Stephanies kleines Lämmchen (41029)9,95 €- 0,04 € (0%)2013-12-27
Erste Hilfe Dschungel-Bike (41032)15,99 €+ 1,00 € (7%)2014-05-31
Adventskalender (41040)19,95 €- 5,04 € (20%)2014-09-02
Schildkrötenparadies (41041)3,25 €- 1,24 € (28%)2013-12-27
Tigertempel (41042)18,44 €+ 13,95 € (311%)2013-12-27
Papageiengarten (41044)4,95 €+ 0,46 € (10%)2014-05-14
Braunbär am Fluss (41046)4,95 €+ 0,46 € (10%)2014-05-14
Panda-Bambusspielplatz (41049)3,25 €- 1,24 € (28%)2014-09-02
Heartlake Einkaufszentrum (41058)89,95 €- 10,04 € (10%)2014-05-31
Elsas funkelnder Eispalast (41062)39,95 €- 0,04 € (0%)2014-12-23
Niedrigsten PreisRapunzels perfekter Tag (41065)15,36 €- 9,63 € (39%)2016-05-26
Annas und Kristoffs Schlittenabenteuer (41066)19,03 €- 10,96 € (37%)2015-12-04
Belles bezauberndes Schloss (41067)38,99 €- 11,00 € (22%)2016-05-26
Fest im großen Schloss von Arendelle (41068)42,11 €- 17,88 € (30%)2015-12-04
Korallinas Tag am Pool (41069)6,39 €- 1,60 € (20%)2015-12-15
Airas Erfinderwerkstatt (41071)9,99 €--2015-03-01
Naidas Abenteuerschiff (41073)26,95 €- 3,04 € (10%)2015-03-01
Das mystische Elfenversteck (41075)52,99 €+ 3,00 € (6%)2015-03-01
Airas Pegasus-Schlitten (41077)36,95 €- 3,04 € (8%)2015-06-01
Heartlake Leuchtturm (41094)33,74 €- 6,25 € (16%)2014-12-25
Emmas Familienhaus (41095)54,99 €- 15,00 € (21%)2014-12-25
Heartlake Heißluftballon (41097)22,95 €- 7,04 € (23%)2014-12-25
Emmas Kiosk (41098)7,95 €- 2,04 € (20%)2015-06-01
Heartlake Skatepark (41099)16,99 €- 3,00 € (15%)2015-06-01
Heartlake Jet (41100)32,99 €+ 8,00 € (32%)2015-06-01
Heartlake Großes Hotel (41101)89,92 €- 40,07 € (31%)2015-06-01
LEGO® Friends Adventskalender (41102)19,95 €- 0,04 € (0%)2015-09-01
Popstar Aufnahmestudio (41103)11,95 €- 3,04 € (20%)2015-06-01
Popstar Garderobe (41104)27,95 €- 2,04 € (7%)2015-06-01
Popstar Showbühne (41105)41,95 €- 3,04 € (7%)2015-06-01
Popstar Tourbus (41106)39,95 €- 20,04 € (33%)2015-06-01
Heartlake Lebensmittelmarkt (41108)44,95 €+ 4,96 € (12%)2015-06-01
Heartlake Flughafen (41109)84,95 €- 5,04 € (6%)2015-06-01
Geburtstagsparty (41110)14,99 €- 5,00 € (25%)2015-12-15
Partyzug (41111)7,95 €- 2,04 € (20%)2015-12-15
Partykuchen (41112)3,95 €- 1,04 € (21%)2015-12-15
Party-Geschenkeladen (41113)3,95 €- 1,04 € (21%)2015-12-15
Partystyling (41114)3,99 €- 1,00 € (20%)2015-12-15
Emmas Erfinderwerkstatt (41115)7,95 €- 2,04 € (20%)2015-12-19
Olivias Expeditionsauto (41116)14,95 €- 0,04 € (0%)2015-12-19
Popstar TV-Studio (41117)16,95 €- 8,04 € (32%)2015-12-19
Heartlake Supermarkt (41118)26,88 €- 8,11 € (23%)2015-12-19
Heartlake Cupcake-Café (41119)30,01 €- 9,98 € (25%)2015-12-19
Abenteuercamp Bogenschießen (41120)7,99 €- 2,00 € (20%)2015-12-15
Abenteuercamp Rafting (41121)25,95 €- 4,04 € (13%)2015-12-15
Abenteuercamp Baumhaus (41122)34,99 €- 35,00 € (50%)2015-12-15
Waschhäuschen für Emmas Fohlen (41123)7,95 €- 2,04 € (20%)2016-05-29
Heartlake Welpen-Betreuung (41124)22,86 €- 7,13 € (24%)2016-05-27
Pferdeanhänger und Tierärztin (41125)29,88 €- 10,11 € (25%)2016-05-27
Heartlake Reiterhof (41126)44,88 €- 20,11 € (31%)2016-05-27
Spielspaß im Freizeitpark (41127)12,47 €- 2,52 € (17%)2016-05-27
Raketen-Karussell (41128)15,59 €- 4,40 € (22%)2016-05-27
Hot-Dog-Stand im Freizeitpark (41129)22,98 €- 7,01 € (23%)2016-05-27
Großer Freizeitpark (41130)74,88 €- 25,11 € (25%)2016-05-27
LEGO® Friends Adventskalender 2016 (41131)14,99 €- 5,00 € (25%)2016-08-31
Heartlake Partyladen (41132)29,95 €- 0,04 € (0%)2016-05-29
Autoscooter im Freizeitpark (41133)30,77 €- 9,22 € (23%)2016-05-29
Niedrigsten PreisHeartlake Kunstschule (41134)79,99 €--2016-05-29
Livis Popstar-Villa (41135)54,99 €--2015-12-15
Daisys Schönheitssalon (41140)5,75 €- 4,24 € (42%)2015-12-15
Ballerines Königskutsche (41141)9,50 €- 0,49 € (5%)2015-12-15
Königliches Schloss der Palasttiere (41142)15,33 €- 4,66 € (23%)2015-12-19
Berrys Küche (41143)5,73 €- 1,26 € (18%)2016-12-01
Niedrigsten PreisSuzettes Reitanlage (41144)5,71 €- 4,28 € (43%)2016-12-01
Annas eisiges Abenteuer (41147)13,88 €- 6,11 € (31%)2016-12-01
Niedrigsten PreisElsas magischer Eispalast (41148)49,88 €- 20,11 € (29%)2016-12-01
Niedrigsten PreisVaianas Abenteuerinsel (41149)19,00 €- 10,99 € (37%)2016-12-01
Vaiana auf hoher See (41150)30,47 €- 9,52 € (24%)2016-12-01
Emily Jones & das Winddrachen-Baby (41171)13,95 €+ 3,96 € (40%)2016-03-01
Abenteuer mit dem Wasserdrachen (41172)15,95 €- 9,04 € (36%)2016-03-01
Lavahöhle des Feuerdrachens (41175)31,19 €- 8,80 € (22%)2016-03-01
Der geheime Marktplatz (41176)48,05 €- 11,94 € (20%)2016-03-01
Die kostbare Kristallmine (41177)19,95 €- 5,04 € (20%)2016-05-26
Rettung der Drachenkönigin (41179)50,34 €- 19,65 € (28%)2016-05-26
Raganas magisches Schattenschloss (41180)61,30 €- 28,69 € (32%)2016-05-26
Niedrigsten PreisNaidas Gondel und der diebische Kobold (41181)7,95 €- 2,04 € (20%)2017-03-01
Niedrigsten PreisDie Gefangennahme von Sophie Jones (41182)15,95 €- 4,04 € (20%)2017-03-01
Niedrigsten PreisDer böse Drache des Kobold-Königs (41183)26,99 €- 3,00 € (10%)2017-03-01
Niedrigsten PreisAiras Luftschiff und die Jagd nach dem Amulett (41184)31,99 €- 8,00 € (20%)2017-03-01
Niedrigsten PreisMagische Rettung aus dem Kobold-Dorf (41185)46,79 €- 13,20 € (22%)2017-03-01
Niedrigsten PreisBatgirl™ auf den Fersen des Batjets (41230)17,98 €- 7,01 € (28%)2016-12-01
Harley Quinn™ eilt zu Hilfe (41231)22,98 €- 7,01 € (23%)2016-12-01
Highschool der Super Heroes (41232)62,39 €- 17,60 € (22%)2016-12-01
Lashinas Action-Cruiser (41233)10,25 €- 4,74 € (32%)2016-12-01
Bumblebees™ Hubschrauber (41234)11,69 €- 3,30 € (22%)2016-12-01
Wonder Womans™ Schlafgemach (41235)15,59 €- 4,40 € (22%)2016-12-01
Welpen-Meisterschaft (41300)15,59 €- 4,40 € (22%)2016-12-01
Welpenparade (41301)11,69 €- 3,30 € (22%)2016-12-01
Niedrigsten PreisWelpensalon (41302)3,95 €- 1,04 € (21%)2016-12-01
Welpenspielplatz (41303)3,95 €- 1,04 € (21%)2016-12-01
Welpenpark (41304)3,95 €- 1,04 € (21%)2016-12-01
Niedrigsten PreisEmmas Fotostudio (41305)7,95 €- 2,04 € (20%)2016-12-01
Niedrigsten PreisMias Strandroller (41306)7,95 €- 2,04 € (20%)2016-12-01
Niedrigsten PreisOlivias Erfinderlabor (41307)7,95 €- 2,04 € (20%)2016-12-01
Niedrigsten PreisStephanies Backstube (41308)7,95 €- 2,04 € (20%)2016-12-01
Niedrigsten PreisAndreas Showbühne (41309)7,95 €- 2,04 € (20%)2016-12-01
Heartlake Geschenkeservice (41310)15,59 €- 4,40 € (22%)2016-12-01
Heartlake Pizzeria (41311)23,08 €- 6,91 € (23%)2016-12-01
Heartlake Sportzentrum (41312)30,88 €- 9,11 € (23%)2016-12-01
Heartlake Freibad (41313)38,88 €- 11,11 € (22%)2016-12-01
Niedrigsten PreisStephanies Haus (41314)49,88 €- 20,11 € (29%)2016-12-01
Gox (41536)6,95 €+ 2,96 € (74%)2015-06-01
Jinky (41537)6,95 €+ 2,96 € (74%)2015-06-01
Kamzo (41538)6,95 €+ 2,96 € (74%)2015-06-01
Spugg (41542)6,95 €+ 2,96 € (74%)2015-06-01
Turg (41543)6,95 €+ 2,96 € (74%)2015-06-01
Tungster (41544)6,95 €+ 2,96 € (74%)2015-06-01
Kuffs (41554)3,95 €- 0,04 € (1%)2016-01-31
Busto (41555)3,95 €- 0,04 € (1%)2016-01-31
Tiketz (41556)3,99 €--2016-01-31
Jamzy (41560)3,99 €--2016-01-31
Trumpsy (41562)3,99 €--2016-01-31
Niedrigsten PreisGobbol (41572)3,95 €- 0,04 € (1%)2016-10-01
Niedrigsten PreisSweepz (41573)3,95 €- 0,04 € (1%)2016-10-01
Niedrigsten PreisCompax (41574)3,95 €- 0,04 € (1%)2016-10-01
Niedrigsten PreisCobrax (41575)3,95 €- 0,04 € (1%)2016-10-01
Niedrigsten PreisSpinza (41576)3,95 €- 0,04 € (1%)2016-10-01
Niedrigsten PreisMysto (41577)3,95 €- 0,04 € (1%)2016-10-01
Screeno (41578)4,95 €+ 0,96 € (24%)2016-10-01
Niedrigsten PreisCamsta (41579)3,95 €- 0,04 € (1%)2016-10-01
Niedrigsten PreisMyke (41580)3,95 €- 0,04 € (1%)2016-10-01
Niedrigsten PreisBatman™ (41585)9,99 €--2017-02-01
Niedrigsten PreisBatgirl™ (41586)9,99 €--2017-02-01
Niedrigsten PreisRobin™ (41587)9,99 €--2017-02-01
Niedrigsten PreisThe Joker™ (41588)9,99 €--2017-02-01
Niedrigsten PreisCaptain America (41589)9,99 €--2017-02-01
Niedrigsten PreisIron Man (41590)9,99 €--2017-02-01
Niedrigsten PreisBlack Widow (41591)9,99 €--2017-02-01
Niedrigsten PreisThe Hulk (41592)9,99 €--2017-02-01
Niedrigsten PreisCaptain Jack Sparrow (41593)9,99 €--2017-02-24
Niedrigsten PreisCaptain Armando Salazar (41594)9,99 €--2017-02-24
Niedrigsten PreisBelle (41595)9,99 €--2017-02-03
Niedrigsten PreisBeast (41596)9,99 €--2017-02-03
4x4 Crawler Exclusive Edition (41999)749,99 €+ 570,00 € (317%)2013-08-01

Auch nicht verfügbar Sets zeigen